TimeCST,TemperatureF,Dew PointF,Humidity,Sea Level PressureIn,VisibilityMPH,Wind Direction,Wind SpeedMPH,Gust SpeedMPH,PrecipitationIn,Events,Conditions,WindDirDegrees,DateUTC
12:53 AM,36.0,32.0,86,30.33,10.0,Calm,Calm,-,N/A,,Clear,0,2012-12-05 06:53:00
1:53 AM,34.0,32.0,92,30.34,10.0,Calm,Calm,-,N/A,,Clear,0,2012-12-05 07:53:00
2:53 AM,33.1,32.0,96,30.35,10.0,Calm,Calm,-,N/A,,Clear,0,2012-12-05 08:53:00
3:53 AM,33.1,30.9,92,30.34,10.0,Calm,Calm,-,N/A,,Clear,0,2012-12-05 09:53:00
4:53 AM,34.0,30.9,89,30.33,10.0,Calm,Calm,-,N/A,,Clear,0,2012-12-05 10:53:00
5:53 AM,30.9,30.0,96,30.35,10.0,Calm,Calm,-,N/A,,Clear,0,2012-12-05 11:53:00
6:53 AM,32.0,30.0,92,30.35,10.0,SE,4.6,-,N/A,,Clear,140,2012-12-05 12:53:00
8:53 AM,46.9,35.1,63,30.33,10.0,ESE,4.6,-,N/A,,Clear,120,2012-12-05 14:53:00
9:53 AM,53.1,33.1,47,30.34,10.0,East,4.6,-,N/A,,Clear,100,2012-12-05 15:53:00
10:53 AM,55.9,28.0,34,30.32,10.0,SE,10.4,17.3,N/A,,Clear,140,2012-12-05 16:53:00
11:53 AM,57.0,28.9,34,30.28,10.0,SE,15.0,19.6,N/A,,Clear,140,2012-12-05 17:53:00
12:53 PM,60.1,30.0,32,30.25,10.0,SSE,12.7,18.4,N/A,,Clear,150,2012-12-05 18:53:00
1:53 PM,60.1,27.0,28,30.22,10.0,SE,11.5,19.6,N/A,,Clear,140,2012-12-05 19:53:00
2:53 PM,57.9,28.0,32,30.19,10.0,SE,11.5,-,N/A,,Clear,140,2012-12-05 20:53:00
3:53 PM,57.9,30.9,36,30.18,10.0,SE,6.9,-,N/A,,Clear,130,2012-12-05 21:53:00
4:53 PM,52.0,33.1,49,30.17,10.0,ESE,5.8,-,N/A,,Clear,120,2012-12-05 22:53:00
5:53 PM,48.9,30.9,50,30.15,10.0,ESE,6.9,-,N/A,,Clear,120,2012-12-05 23:53:00
6:53 PM,50.0,30.0,46,30.14,10.0,SE,5.8,-,N/A,,Clear,130,2012-12-06 00:53:00
7:53 PM,46.9,30.0,52,30.13,10.0,SE,4.6,-,N/A,,Clear,130,2012-12-06 01:53:00
8:53 PM,46.0,30.9,56,30.10,10.0,SE,5.8,-,N/A,,Clear,140,2012-12-06 02:53:00
9:53 PM,46.9,33.1,59,30.09,10.0,SE,9.2,-,N/A,,Clear,140,2012-12-06 03:53:00
10:53 PM,46.9,33.1,59,30.08,10.0,SE,8.1,-,N/A,,Clear,140,2012-12-06 04:53:00
11:53 PM,46.0,33.1,61,30.05,10.0,SSE,10.4,-,N/A,,Clear,150,2012-12-06 05:53:00